N5ZKK Weather Reports


Display with metric or nautical units.
time (UTC)temp
F
wind
direction
speed
MPH
gust
MPH
rain 1hr
in
rain 24hr
in
rain mn
in
humidity
%
barometer
mb
20260507065531 59 90 0.0 2.0 0.00 0.15 0.00 97 1017.9
20260507065513 59 45 1.0 2.0 0.00 0.15 0.00 97 1017.5
20260507064536 59 64 0.0 2.0 0.00 0.15 0.00 97 1018.0
20260507063518 59 35 1.0 2.0 0.00 0.15 0.00 97 1018.0
20260507062521 60 333 0.0 2.0 0.00 0.15 0.00 96 1018.0
20260507062513 59 0 0.0 0.0 0.00 0.15 0.00 96 1017.7
20260507061523 60 0.0 1.0 0.00 0.15 0.00 95 1018.1
20260507060519 60 10 0.0 2.0 0.00 0.15 0.00 95 1018.0
20260507055515 60 129 2.0 4.0 0.00 0.15 0.00 96 1017.5
20260507054530 60 9 2.0 4.0 0.00 0.15 0.00 95 1017.6
20260507053532 60 0.0 0.0 0.00 0.15 0.00 95 1017.5
20260507052516 60 30 2.0 6.0 0.00 0.15 0.00 95 1017.5
20260507052513 60 1 2.0 4.0 0.00 0.15 0.00 95 1016.9
20260507051518 60 29 3.0 5.0 0.00 0.15 0.00 95 1017.5
20260507050520 60 28 4.0 6.0 0.00 0.15 0.00 96 1017.6
20260507045523 60 31 2.0 3.0 0.00 0.15 0.15 96 1017.8
20260507045513 60 46 3.0 6.0 0.00 0.15 0.15 96 1017.3
20260507044525 60 24 4.0 8.0 0.00 0.15 0.15 96 1017.9
20260507043528 60 18 3.0 5.0 0.00 0.15 0.15 96 1017.8
20260507042530 60 26 4.0 5.0 0.00 0.15 0.15 97 1017.8
20260507042513 60 26 3.0 7.0 0.00 0.15 0.15 97 1017.3
20260507041532 60 45 5.0 8.0 0.00 0.15 0.15 97 1017.8
20260507040517 60 345 0.0 2.0 0.00 0.15 0.15 97 1017.8
20260507035519 60 20 5.0 6.0 0.00 0.15 0.15 97 1017.5
20260507035513 60 10 4.0 7.0 0.00 0.15 0.15 97 1016.9
20260507034521 60 3 4.0 5.0 0.00 0.15 0.15 97 1017.5
20260507033524 60 19 5.0 9.0 0.00 0.15 0.15 97 1017.3
20260507032520 60 19 4.0 7.0 0.00 0.15 0.15 96 1017.3
20260507032513 60 25 4.0 8.0 0.00 0.15 0.15 96 1016.7
20260507031516 60 23 7.0 9.0 0.00 0.15 0.15 96 1017.3
20260507030530 60 45 4.0 5.0 0.00 0.15 0.15 95 1017.3
20260507025532 60 27 3.0 4.0 0.00 0.15 0.15 95 1017.1
20260507025513 60 26 2.0 4.0 0.00 0.15 0.15 95 1016.5
20260507024517 60 35 2.0 4.0 0.00 0.15 0.15 95 1017.2
20260507023519 60 62 2.0 4.0 0.00 0.15 0.15 95 1016.6
20260507022521 60 73 3.0 4.0 0.00 0.15 0.15 95 1016.6
20260507022513 60 32 4.0 6.0 0.00 0.15 0.15 95 1016.0
20260507021523 60 31 3.0 5.0 0.00 0.15 0.15 95 1016.6
20260507020546 61 14 1.0 3.0 0.00 0.15 0.15 94 1016.6
20260507015528 61 34 4.0 5.0 0.00 0.15 0.15 94 1016.4
20260507015513 60 17 4.0 6.0 0.00 0.15 0.15 94 1015.7
20260507014550 61 26 3.0 5.0 0.00 0.15 0.15 94 1016.4
20260507013553 61 40 2.0 4.0 0.00 0.15 0.15 94 1016.2
20260507012516 61 22 2.0 4.0 0.00 0.15 0.15 93 1016.0
20260507012513 61 354 2.0 5.0 0.00 0.15 0.15 93 1015.0
20260507011519 61 30 4.0 5.0 0.00 0.15 0.15 93 1015.7
20260507010521 61 27 2.0 5.0 0.00 0.15 0.15 92 1015.7
20260507005523 62 32 2.0 3.0 0.00 0.15 0.15 92 1015.5
20260507005513 61 6 2.0 3.0 0.00 0.15 0.15 92 1014.7
20260507004520 62 351 4.0 6.0 0.00 0.15 0.15 92 1015.5
20260507003536 62 35 3.0 4.0 0.00 0.15 0.15 92 1015.3
20260507002550 62 4 2.0 4.0 0.00 0.15 0.15 92 1015.2
20260507002513 61 15 2.0 5.0 0.00 0.15 0.15 91 1014.6
20260507001532 62 346 4.0 6.0 0.00 0.15 0.15 91 1015.3
20260507000516 62 12 4.0 6.0 0.00 0.15 0.15 91 1015.2
20260506235519 62 353 4.0 5.0 0.00 0.15 0.15 91 1015.1
20260506235513 62 349 4.0 5.0 0.00 0.15 0.15 90 1014.2
20260506234521 62 7 3.0 6.0 0.00 0.15 0.15 90 1015.0
20260506233523 62 346 4.0 6.0 0.00 0.15 0.15 90 1014.6
20260506232525 63 57 3.0 5.0 0.00 0.15 0.15 90 1014.7
20260506232513 62 6 4.0 7.0 0.00 0.15 0.15 90 1014.2
20260506231528 63 26 3.0 7.0 0.00 0.15 0.15 90 1015.1
20260506230549 63 2 4.0 7.0 0.00 0.15 0.15 90 1015.1
20260506225552 63 14 4.0 9.0 0.00 0.15 0.15 89 1014.9
20260506225513 63 19 4.0 7.0 0.00 0.15 0.15 89 1013.9
20260506224516 64 4 3.0 8.0 0.00 0.15 0.15 89 1014.7
20260506223538 64 348 6.0 10.0 0.00 0.15 0.15 88 1014.5
20260506222528 65 9 5.0 9.0 0.00 0.15 0.15 88 1014.5
20260506222513 64 42 5.0 8.0 0.00 0.15 0.15 87 1013.4
20260506221517 65 31 5.0 7.0 0.00 0.15 0.15 87 1014.5
20260506220519 66 16 6.0 9.0 0.00 0.15 0.15 86 1014.7
20260506215522 66 356 5.0 7.0 0.00 0.15 0.15 86 1014.5
20260506215513 65 11 4.0 8.0 0.00 0.15 0.15 86 1013.3
20260506214523 66 18 6.0 9.0 0.00 0.15 0.15 85 1014.7
20260506213525 66 20 6.0 10.0 0.00 0.15 0.15 85 1014.5
20260506212528 67 24 6.0 11.0 0.00 0.15 0.15 84 1014.5
20260506212513 67 351 6.0 10.0 0.00 0.15 0.15 82 1013.1
20260506211532 69 360 6.0 11.0 0.00 0.15 0.15 82 1014.5
20260506210712 69 15 5.0 8.0 0.00 0.15 0.15 82 1014.7
20260506205516 70 24 7.0 10.0 0.00 0.15 0.15 81 1014.8
20260506205513 70 17 6.0 10.0 0.00 0.15 0.15 80 1013.1
20260506204518 70 5 8.0 10.0 0.00 0.15 0.15 80 1014.7
20260506203520 71 5 5.0 7.0 0.00 0.15 0.15 80 1014.7
20260506202523 71 35 5.0 7.0 0.00 0.15 0.15 80 1014.7
20260506202513 69 12 5.0 9.0 0.00 0.15 0.15 81 1013.2
20260506201524 69 42 5.0 7.0 0.00 0.15 0.15 82 1014.9
20260506200526 71 3 7.0 11.0 0.00 0.15 0.15 80 1015.0
20260506195709 72 357 5.0 8.0 0.00 0.15 0.15 80 1014.9
20260506195513 72 29 4.0 7.0 0.00 0.15 0.15 79 1012.9
20260506194525 72 10 5.0 11.0 0.00 0.15 0.15 80 1014.8
20260506193521 75 323 4.0 8.0 0.00 0.15 0.15 77 1014.9
20260506192517 73 347 5.0 11.0 0.00 0.15 0.15 80 1014.9
20260506192513 73 32 4.0 8.0 0.00 0.15 0.15 79 1012.9
20260506191531 72 356 6.0 11.0 0.00 0.15 0.15 81 1015.0
20260506190536 74 17 6.0 10.0 0.00 0.15 0.15 80 1014.9
20260506185518 74 46 5.0 10.0 0.00 0.15 0.15 80 1015.0
20260506185513 74 4 5.0 10.0 0.00 0.15 0.15 78 1012.6
20260506184520 76 27 8.0 10.0 0.00 0.15 0.15 78 1014.8
20260506183522 78 28 8.0 11.0 0.00 0.15 0.15 76 1014.8
20260506182525 79 354 3.0 5.0 0.00 0.15 0.15 78 1014.7
20260506182513 79 15 4.0 8.0 0.00 0.15 0.15 77 1012.0
20260506181527 80 338 3.0 7.0 0.00 0.15 0.15 77 1014.7
20260506180529 80 41 3.0 6.0 0.00 0.15 0.15 76 1014.7
20260506175551 79 4 5.0 7.0 0.00 0.15 0.15 79 1014.9
20260506175513 78 17 5.0 7.0 0.00 0.15 0.15 77 1012.2
20260506174515 78 21 4.0 7.0 0.00 0.15 0.15 80 1015.1
20260506173517 74 22 4.0 6.0 0.00 0.15 0.15 85 1015.1
20260506172520 72 23 1.0 4.0 0.00 0.15 0.15 90 1015.1
20260506172513 71 66 2.0 3.0 0.00 0.15 0.15 90 1013.3
20260506171522 72 75 2.0 3.0 0.00 0.15 0.15 89 1015.2
20260506170525 72 270 2.0 4.0 0.00 0.15 0.15 91 1014.9
20260506165521 72 36 3.0 5.0 0.00 0.15 0.15 89 1014.7
20260506165513 71 29 0.0 2.0 0.00 0.15 0.15 89 1012.8
20260506164517 71 49 2.0 4.0 0.00 0.15 0.15 90 1014.7
20260506163531 70 14 2.0 4.0 0.00 0.15 0.15 92 1014.5
20260506162515 68 133 1.0 4.0 0.01 0.15 0.15 95 1014.5
20260506162513 67 350 1.0 3.0 0.00 0.15 0.15 94 1013.0
20260506161517 68 10 3.0 5.0 0.04 0.15 0.15 94 1014.5
20260506160519 68 29 4.0 6.0 0.12 0.15 0.15 95 1014.5
20260506155521 68 5 4.0 6.0 0.13 0.15 0.15 95 1014.5
20260506155513 67 18 3.0 5.0 0.13 0.15 0.15 96 1013.1
20260506154524 67 11 5.0 9.0 0.14 0.15 0.15 95 1014.3
20260506153526 68 346 3.0 8.0 0.14 0.15 0.15 97 1014.4
20260506152528 68 354 3.0 5.0 0.13 0.14 0.14 98 1014.5
20260506152513 67 333 2.0 4.0 0.09 0.11 0.11 98 1013.0
20260506151551 69 0 6.0 8.0 0.10 0.11 0.11 97 1014.5
20260506150533 73 267 3.0 19.0 0.02 0.03 0.03 99 1013.8
20260506145517 73 250 1.0 3.0 0.01 0.02 0.02 99 1013.8
20260506145513 72 0 0.0 0.0 0.01 0.01 0.01 99 1011.7
20260506144539 73 220 1.0 3.0 0.01 0.01 0.01 99 1013.8
20260506143521 73 225 1.0 3.0 0.01 0.01 0.01 99 1013.8
20260506142523 73 0.0 0.0 0.01 0.01 0.01 99 1013.6
20260506142513 72 0 0.0 0.0 0.01 0.01 0.01 99 1011.4
20260506141520 73 0.0 0.0 0.01 0.01 0.01 99 1013.4
20260506140515 72 0.0 0.0 0.01 0.01 0.01 99 1013.3
20260506135530 72 0.0 0.0 0.01 0.01 0.01 99 1013.2
20260506135513 72 93 1.0 3.0 0.00 0.00 0.00 99 1011.3
20260506134532 72 0.0 3.0 0.00 0.00 0.00 99 1012.8
20260506133516 72 0.0 0.0 0.00 0.00 0.00 99 1012.1
20260506132518 72 129 1.0 3.0 0.00 0.00 0.00 99 1011.9
20260506132513 71 135 0.0 3.0 0.00 0.00 0.00 99 1010.0
20260506131540 72 176 1.0 4.0 0.00 0.00 0.00 99 1011.9
20260506130522 72 113 1.0 2.0 0.00 0.00 0.00 99 1011.7
20260506125524 72 59 1.0 3.0 0.00 0.00 0.00 99 1011.7
20260506125513 71 141 1.0 3.0 0.00 0.00 0.00 99 1009.8
20260506124547 72 164 1.0 4.0 0.00 0.00 0.00 99 1011.7
20260506123549 72 160 2.0 5.0 0.00 0.00 0.00 99 1011.4
20260506122532 72 123 2.0 4.0 0.00 0.00 0.00 99 1011.4
20260506122513 71 143 2.0 6.0 0.00 0.00 0.00 99 1009.5
20260506121516 72 152 3.0 5.0 0.00 0.00 0.00 99 1011.4
20260506120518 72 138 1.0 4.0 0.00 0.00 0.00 99 1011.3
20260506115527 72 147 2.0 4.0 0.00 0.00 0.00 99 1011.3
20260506115513 72 166 2.0 4.0 0.00 0.00 0.00 99 1009.4
20260506114516 72 176 3.0 6.0 0.00 0.00 0.00 99 1011.4
20260506113518 72 148 2.0 5.0 0.00 0.00 0.00 99 1011.5
20260506112521 72 146 2.0 4.0 0.00 0.00 0.00 99 1011.6
20260506112513 72 157 2.0 4.0 0.00 0.00 0.00 99 1009.8
20260506111522 72 168 2.0 4.0 0.00 0.00 0.00 99 1011.7
20260506110525 72 158 0.0 3.0 0.00 0.00 0.00 99 1011.7
20260506105527 72 145 2.0 3.0 0.00 0.00 0.00 99 1011.7
20260506105513 72 179 1.0 5.0 0.00 0.00 0.00 99 1009.7
20260506104529 72 192 2.0 5.0 0.00 0.00 0.00 99 1011.7
20260506103532 72 192 3.0 5.0 0.00 0.00 0.00 99 1011.5
20260506102517 72 94 4.0 9.0 0.00 0.00 0.00 99 1011.4
20260506102513 72 217 3.0 6.0 0.00 0.00 0.00 99 1009.6
20260506101518 72 165 3.0 7.0 0.00 0.00 0.00 99 1011.5
20260506100520 72 193 3.0 6.0 0.00 0.00 0.00 99 1011.4
20260506095522 72 138 4.0 6.0 0.00 0.00 0.00 99 1011.3
20260506095513 72 181 3.0 6.0 0.00 0.00 0.00 99 1009.4
20260506094524 72 175 3.0 6.0 0.00 0.00 0.00 99 1011.4
20260506093521 72 146 3.0 6.0 0.00 0.00 0.00 99 1011.3
20260506092522 72 162 4.0 8.0 0.00 0.00 0.00 99 1011.4
20260506092513 72 183 2.0 5.0 0.00 0.00 0.00 99 1009.4
20260506091525 73 172 4.0 8.0 0.00 0.00 0.00 99 1011.4
20260506090521 73 135 6.0 9.0 0.00 0.00 0.00 99 1011.2
20260506085517 73 145 3.0 5.0 0.00 0.00 0.00 99 1011.0
20260506085513 72 140 3.0 5.0 0.00 0.00 0.00 99 1008.9
20260506084531 73 178 5.0 8.0 0.00 0.00 0.00 99 1011.0
20260506083536 73 150 5.0 9.0 0.00 0.00 0.00 98 1010.9
20260506082518 73 199 4.0 8.0 0.00 0.00 0.00 97 1010.8
20260506082513 73 146 4.0 7.0 0.00 0.00 0.00 97 1008.7
20260506081520 74 119 5.0 8.0 0.00 0.00 0.00 96 1010.8
20260506080522 74 148 3.0 7.0 0.00 0.00 0.00 96 1010.9
20260506073528 74 159 6.0 9.0 0.00 0.00 0.00 95 1011.1
20260506072532 74 172 5.0 9.0 0.00 0.00 0.00 95 1011.2
20260506072513 74 189 5.0 7.0 0.00 0.00 0.00 95 1009.0
20260506071534 74 174 6.0 13.0 0.00 0.00 0.00 95 1011.2
20260506070537 75 190 5.0 10.0 0.00 0.00 0.00 95 1011.3